Time,TemperatureF,DewpointF,PressureIn,WindDirection,WindDirectionDegrees,WindSpeedMPH,WindSpeedGustMPH,Humidity,HourlyPrecipIn,Conditions,Clouds,dailyrainin,SoftwareType,DateUTC
2013-11-19 00:01:00,45.9,29.3,29.75,West,272,18.4,18.4,52,0.00,RA,,0.00,WeatherDisplay:10.37,2013-11-19 05:01:00,
2013-11-19 00:02:00,45.8,29.7,29.75,WNW,301,20.3,20.3,53,0.00,RA,,0.00,WeatherDisplay:10.37,2013-11-19 05:02:00,
2013-11-19 00:03:00,45.8,29.2,29.75,NNW,337,17.3,17.3,52,0.00,RA,,0.00,WeatherDisplay:10.37,2013-11-19 05:03:00,
2013-11-19 00:04:00,45.8,29.2,29.75,NNW,330,11.5,11.5,52,0.00,RA,,0.00,WeatherDisplay:10.37,2013-11-19 05:04:00,
2013-11-19 00:07:00,45.6,29.5,29.75,NW,311,16.1,16.1,53,0.00,RA,,0.00,WeatherDisplay:10.37,2013-11-19 05:07:00,
2013-11-19 00:12:00,45.7,30.0,29.76,West,277,12.7,12.7,54,0.00,CLR,,0.00,WeatherDisplay:10.37,2013-11-19 05:12:00,
2013-11-19 00:17:00,45.6,29.9,29.76,NW,320,16.1,16.1,54,0.00,CLR,,0.00,WeatherDisplay:10.37,2013-11-19 05:17:00,
2013-11-19 00:20:00,45.6,29.9,29.76,NW,306,15.0,15.0,54,0.00,CLR,,0.00,WeatherDisplay:10.37,2013-11-19 05:20:00,
2013-11-19 00:25:00,45.5,30.3,29.77,North,360,15.3,15.3,55,0.00,CLR,,0.00,WeatherDisplay:10.37,2013-11-19 05:25:00,
2013-11-19 00:30:00,45.5,29.8,29.76,NW,320,17.3,17.3,54,0.00,CLR,,0.00,WeatherDisplay:10.37,2013-11-19 05:30:00,
2013-11-19 00:35:00,45.3,30.1,29.77,WNW,289,20.6,20.6,55,0.00,CLR,,0.00,WeatherDisplay:10.37,2013-11-19 05:35:00,
2013-11-19 00:40:00,45.2,30.9,29.77,NW,308,19.3,19.3,57,0.00,CLR,,0.00,WeatherDisplay:10.37,2013-11-19 05:40:00,
2013-11-19 00:45:00,45.3,31.0,29.78,NE,47,11.6,11.6,57,0.00,CLR,,0.00,WeatherDisplay:10.37,2013-11-19 05:45:00,
2013-11-19 00:50:00,45.1,31.2,29.78,WNW,301,17.3,17.3,58,0.00,CLR,,0.00,WeatherDisplay:10.37,2013-11-19 05:50:00,
2013-11-19 00:55:00,44.8,31.4,29.78,NW,322,16.9,16.9,59,0.00,CLR,,0.00,WeatherDisplay:10.37,2013-11-19 05:55:00,
2013-11-19 01:00:00,44.9,31.5,29.79,NW,305,20.0,20.0,59,0.00,CLR,,0.00,WeatherDisplay:10.37,2013-11-19 06:00:00,
2013-11-19 01:05:00,44.7,31.3,29.78,WNW,285,19.6,19.6,59,0.00,CLR,,0.00,WeatherDisplay:10.37,2013-11-19 06:05:00,
2013-11-19 01:10:00,44.5,31.5,29.79,NW,306,12.7,12.7,60,0.00,CLR,,0.00,WeatherDisplay:10.37,2013-11-19 06:10:00,
2013-11-19 01:15:00,44.2,31.2,29.79,West,267,16.1,16.1,60,0.00,CLR,,0.00,WeatherDisplay:10.37,2013-11-19 06:15:00,
2013-11-19 01:20:00,43.8,31.3,29.79,NW,316,17.3,17.3,61,0.00,CLR,,0.00,WeatherDisplay:10.37,2013-11-19 06:20:00,
2013-11-19 01:25:00,43.5,31.4,29.79,NW,308,13.1,13.1,62,0.00,CLR,,0.00,WeatherDisplay:10.37,2013-11-19 06:25:00,
2013-11-19 01:30:00,43.4,31.3,29.80,NW,316,12.7,12.7,62,0.00,CLR,,0.00,WeatherDisplay:10.37,2013-11-19 06:30:00,
2013-11-19 01:35:00,43.2,31.1,29.80,WNW,299,23.0,23.0,62,0.00,CLR,,0.00,WeatherDisplay:10.37,2013-11-19 06:35:00,
2013-11-19 01:40:00,42.9,30.8,29.81,NNW,337,16.1,16.1,62,0.00,CLR,,0.00,WeatherDisplay:10.37,2013-11-19 06:40:00,
2013-11-19 01:45:00,43.1,31.0,29.81,WNW,282,6.9,6.9,62,0.00,CLR,,0.00,WeatherDisplay:10.37,2013-11-19 06:45:00,
2013-11-19 01:50:00,42.9,31.2,29.81,NW,319,9.3,9.3,63,0.00,CLR,,0.00,WeatherDisplay:10.37,2013-11-19 06:50:00,
2013-11-19 01:55:00,42.6,31.3,29.82,West,263,15.0,15.0,64,0.00,CLR,,0.00,WeatherDisplay:10.37,2013-11-19 06:55:00,
2013-11-19 02:00:00,42.4,31.1,29.82,NNW,342,11.1,11.1,64,0.00,CLR,,0.00,WeatherDisplay:10.37,2013-11-19 07:00:00,
2013-11-19 02:05:00,42.4,31.1,29.82,WNW,301,7.4,7.4,64,0.00,SCT,,0.00,WeatherDisplay:10.37,2013-11-19 07:05:00,
2013-11-19 02:11:00,42.2,31.3,29.83,NNW,336,9.5,9.5,65,0.00,SCT,,0.00,WeatherDisplay:10.37,2013-11-19 07:11:00,
2013-11-19 02:16:00,42.1,31.2,29.83,WNW,301,7.9,7.9,65,0.00,SCT,,0.00,WeatherDisplay:10.37,2013-11-19 07:16:00,
2013-11-19 02:21:00,41.7,30.1,29.82,NW,305,20.0,20.0,63,0.00,SCT,,0.00,WeatherDisplay:10.37,2013-11-19 07:21:00,
2013-11-19 02:26:00,41.9,29.5,29.82,NW,305,24.9,24.9,61,0.00,SCT,,0.00,WeatherDisplay:10.37,2013-11-19 07:26:00,
2013-11-19 02:31:00,41.6,27.9,29.82,NW,316,38.0,38.0,58,0.00,SCT,,0.00,WeatherDisplay:10.37,2013-11-19 07:31:00,
2013-11-19 02:36:00,41.8,28.5,29.83,WNW,284,13.8,13.8,59,0.00,SCT,,0.00,WeatherDisplay:10.37,2013-11-19 07:36:00,
2013-11-19 02:41:00,41.5,27.8,29.83,NNW,342,26.0,26.0,58,0.00,SCT,,0.00,WeatherDisplay:10.37,2013-11-19 07:41:00,
2013-11-19 02:46:00,41.3,27.7,29.84,NNW,328,10.6,10.6,58,0.00,SCT,,0.00,WeatherDisplay:10.37,2013-11-19 07:46:00,
2013-11-19 02:51:00,41.3,28.1,29.84,NNW,330,16.1,16.1,59,0.00,SCT,,0.00,WeatherDisplay:10.37,2013-11-19 07:51:00,
2013-11-19 02:56:00,41.3,28.5,29.84,WSW,248,13.4,13.4,60,0.00,SCT,,0.00,WeatherDisplay:10.37,2013-11-19 07:56:00,
2013-11-19 03:01:00,41.2,27.6,29.85,WNW,285,10.4,10.4,58,0.00,SCT,,0.00,WeatherDisplay:10.37,2013-11-19 08:01:00,
2013-11-19 03:06:00,41.2,28.0,29.85,WSW,241,9.6,9.6,59,0.00,BKN,,0.00,WeatherDisplay:10.37,2013-11-19 08:06:00,
2013-11-19 03:11:00,41.3,28.1,29.85,NW,320,9.4,9.4,59,0.00,BKN,,0.00,WeatherDisplay:10.37,2013-11-19 08:11:00,
2013-11-19 03:16:00,41.0,27.0,29.85,West,280,16.1,16.1,57,0.00,BKN,,0.00,WeatherDisplay:10.37,2013-11-19 08:16:00,
2013-11-19 03:21:00,41.0,27.4,29.85,North,8,16.2,16.2,58,0.00,BKN,,0.00,WeatherDisplay:10.37,2013-11-19 08:21:00,
2013-11-19 03:26:00,41.1,27.5,29.85,NW,318,7.8,7.8,58,0.00,BKN,,0.00,WeatherDisplay:10.37,2013-11-19 08:26:00,
2013-11-19 03:31:00,40.9,26.9,29.85,NW,319,15.0,15.0,57,0.00,BKN,,0.00,WeatherDisplay:10.37,2013-11-19 08:31:00,
2013-11-19 03:36:00,40.9,26.9,29.86,NNW,347,11.6,11.6,57,0.00,BKN,,0.00,WeatherDisplay:10.37,2013-11-19 08:36:00,
2013-11-19 03:41:00,40.9,26.9,29.86,WSW,253,5.8,5.8,57,0.00,BKN,,0.00,WeatherDisplay:10.37,2013-11-19 08:41:00,
2013-11-19 03:46:00,41.1,27.0,29.86,WNW,301,4.6,4.6,57,0.00,BKN,,0.00,WeatherDisplay:10.37,2013-11-19 08:46:00,
2013-11-19 03:51:00,40.5,25.6,29.87,NW,323,22.4,22.4,55,0.00,BKN,,0.00,WeatherDisplay:10.37,2013-11-19 08:51:00,
2013-11-19 03:56:00,40.7,25.8,29.87,NNW,343,17.3,17.3,55,0.00,BKN,,0.00,WeatherDisplay:10.37,2013-11-19 08:56:00,
2013-11-19 04:01:00,40.4,25.5,29.88,NNW,332,12.7,12.7,55,0.00,BKN,,0.00,WeatherDisplay:10.37,2013-11-19 09:01:00,
2013-11-19 04:06:00,40.0,25.6,29.88,NE,44,14.4,14.4,56,0.00,OVC,,0.00,WeatherDisplay:10.37,2013-11-19 09:06:00,
2013-11-19 04:11:00,40.0,25.6,29.89,West,261,13.2,13.2,56,0.00,OVC,,0.00,WeatherDisplay:10.37,2013-11-19 09:11:00,
2013-11-19 04:16:00,40.0,26.0,29.88,NNW,344,11.7,11.7,57,0.00,OVC,,0.00,WeatherDisplay:10.37,2013-11-19 09:16:00,
2013-11-19 04:21:00,39.6,25.6,29.88,NNW,330,16.5,16.5,57,0.00,OVC,,0.00,WeatherDisplay:10.37,2013-11-19 09:21:00,
2013-11-19 04:26:00,39.6,25.6,29.89,West,281,9.2,9.2,57,0.00,OVC,,0.00,WeatherDisplay:10.37,2013-11-19 09:26:00,
2013-11-19 04:31:00,39.4,25.5,29.89,North,1,11.5,11.5,57,0.00,OVC,,0.00,WeatherDisplay:10.37,2013-11-19 09:31:00,
2013-11-19 04:36:00,39.1,25.2,29.90,North,352,7.1,7.1,57,0.00,OVC,,0.00,WeatherDisplay:10.37,2013-11-19 09:36:00,
2013-11-19 04:41:00,39.0,25.5,29.90,NNW,335,11.5,11.5,58,0.00,OVC,,0.00,WeatherDisplay:10.37,2013-11-19 09:41:00,
2013-11-19 04:46:00,39.1,25.6,29.90,NW,312,11.5,11.5,58,0.00,OVC,,0.00,WeatherDisplay:10.37,2013-11-19 09:46:00,
2013-11-19 04:51:00,39.2,26.1,29.90,North,8,7.8,7.8,59,0.00,OVC,,0.00,WeatherDisplay:10.37,2013-11-19 09:51:00,
2013-11-19 04:56:00,38.9,25.4,29.90,NNW,344,6.9,6.9,58,0.00,OVC,,0.00,WeatherDisplay:10.37,2013-11-19 09:56:00,
2013-11-19 05:01:00,39.0,25.9,29.90,WSW,237,13.1,13.1,59,0.00,SCT,,0.00,WeatherDisplay:10.37,2013-11-19 10:01:00,
2013-11-19 05:06:00,38.7,25.2,29.90,West,271,8.1,8.1,58,0.00,SCT,,0.00,WeatherDisplay:10.37,2013-11-19 10:06:00,
2013-11-19 05:11:00,38.4,25.3,29.90,NW,322,13.1,13.1,59,0.00,SCT,,0.00,WeatherDisplay:10.37,2013-11-19 10:11:00,
2013-11-19 05:16:00,38.4,25.3,29.91,WNW,288,10.9,10.9,59,0.00,SCT,,0.00,WeatherDisplay:10.37,2013-11-19 10:16:00,
2013-11-19 05:21:00,38.6,25.5,29.91,West,263,8.9,8.9,59,0.00,SCT,,0.00,WeatherDisplay:10.37,2013-11-19 10:21:00,
2013-11-19 05:26:00,38.3,25.7,29.91,WNW,296,11.5,11.5,60,0.00,SCT,,0.00,WeatherDisplay:10.37,2013-11-19 10:26:00,
2013-11-19 05:31:00,38.3,25.3,29.91,West,274,9.7,9.7,59,0.00,SCT,,0.00,WeatherDisplay:10.37,2013-11-19 10:31:00,
2013-11-19 05:36:00,38.3,25.7,29.91,NW,323,15.7,15.7,60,0.00,SCT,,0.00,WeatherDisplay:10.37,2013-11-19 10:36:00,
2013-11-19 05:41:00,38.3,25.7,29.91,NW,315,9.7,9.7,60,0.00,SCT,,0.00,WeatherDisplay:10.37,2013-11-19 10:41:00,
2013-11-19 05:46:00,38.3,25.3,29.91,North,0,14.9,14.9,59,0.00,SCT,,0.00,WeatherDisplay:10.37,2013-11-19 10:46:00,
2013-11-19 05:51:00,38.1,25.5,29.91,West,278,22.0,22.0,60,0.00,SCT,,0.00,WeatherDisplay:10.37,2013-11-19 10:51:00,
2013-11-19 05:56:00,38.0,25.4,29.91,NNW,347,16.0,16.0,60,0.00,SCT,,0.00,WeatherDisplay:10.37,2013-11-19 10:56:00,
2013-11-19 06:01:00,38.2,25.2,29.91,North,3,11.9,11.9,59,0.00,SCT,,0.00,WeatherDisplay:10.37,2013-11-19 11:01:00,
2013-11-19 06:06:00,38.2,25.2,29.92,NW,311,20.4,20.4,59,0.00,CLR,,0.00,WeatherDisplay:10.37,2013-11-19 11:06:00,
2013-11-19 06:11:00,38.2,25.6,29.93,WNW,299,8.1,8.1,60,0.00,CLR,,0.00,WeatherDisplay:10.37,2013-11-19 11:11:00,
2013-11-19 06:16:00,38.3,25.7,29.93,NNE,14,6.9,6.9,60,0.00,CLR,,0.00,WeatherDisplay:10.37,2013-11-19 11:16:00,
2013-11-19 06:21:00,38.4,25.8,29.93,WNW,298,19.8,19.8,60,0.00,CLR,,0.00,WeatherDisplay:10.37,2013-11-19 11:21:00,
2013-11-19 06:26:00,38.2,25.6,29.93,NW,320,17.3,17.3,60,0.00,CLR,,0.00,WeatherDisplay:10.37,2013-11-19 11:26:00,
2013-11-19 06:31:00,38.4,25.8,29.93,NNW,340,18.3,18.3,60,0.00,CLR,,0.00,WeatherDisplay:10.37,2013-11-19 11:31:00,
2013-11-19 06:36:00,38.5,26.2,29.94,West,277,15.5,15.5,61,0.00,CLR,,0.00,WeatherDisplay:10.37,2013-11-19 11:36:00,
2013-11-19 06:41:00,38.5,26.2,29.94,North,353,20.7,20.7,61,0.00,CLR,,0.00,WeatherDisplay:10.37,2013-11-19 11:41:00,
2013-11-19 06:46:00,38.5,26.2,29.94,NE,42,10.4,10.4,61,0.00,CLR,,0.00,WeatherDisplay:10.37,2013-11-19 11:46:00,
2013-11-19 06:51:00,38.6,26.7,29.95,WNW,289,10.4,10.4,62,0.00,CLR,,0.00,WeatherDisplay:10.37,2013-11-19 11:51:00,
2013-11-19 06:56:00,38.4,26.5,29.94,NW,308,7.6,7.6,62,0.00,CLR,,0.00,WeatherDisplay:10.37,2013-11-19 11:56:00,
2013-11-19 07:01:00,38.2,26.7,29.94,West,263,16.7,16.7,63,0.00,CLR,,0.00,WeatherDisplay:10.37,2013-11-19 12:01:00,
2013-11-19 07:06:00,38.2,27.1,29.95,NNW,346,11.7,11.7,64,0.00,CLR,,0.00,WeatherDisplay:10.37,2013-11-19 12:06:00,
2013-11-19 07:11:00,38.4,27.3,29.95,NW,326,17.1,17.1,64,0.00,CLR,,0.00,WeatherDisplay:10.37,2013-11-19 12:11:00,
2013-11-19 07:16:00,38.4,27.7,29.95,NNE,24,13.4,13.4,65,0.00,CLR,,0.00,WeatherDisplay:10.37,2013-11-19 12:16:00,
2013-11-19 07:21:00,38.4,27.7,29.95,NW,319,13.8,13.8,65,0.00,CLR,,0.00,WeatherDisplay:10.37,2013-11-19 12:21:00,
2013-11-19 07:26:00,38.5,27.8,29.95,NNE,27,16.8,16.8,65,0.00,CLR,,0.00,WeatherDisplay:10.37,2013-11-19 12:26:00,
2013-11-19 07:31:00,38.4,27.7,29.96,NW,325,9.4,9.4,65,0.00,CLR,,0.00,WeatherDisplay:10.37,2013-11-19 12:31:00,
2013-11-19 07:36:00,38.7,28.0,29.96,WNW,299,10.4,10.4,65,0.00,CLR,,0.00,WeatherDisplay:10.37,2013-11-19 12:36:00,
2013-11-19 07:41:00,38.9,28.2,29.97,North,360,10.4,10.4,65,0.00,CLR,,0.00,WeatherDisplay:10.37,2013-11-19 12:41:00,
2013-11-19 07:46:00,38.9,27.8,29.97,East,80,16.4,16.4,64,0.00,CLR,,0.00,WeatherDisplay:10.37,2013-11-19 12:46:00,
2013-11-19 07:51:00,39.2,28.1,29.98,NW,326,11.5,11.5,64,0.00,CLR,,0.00,WeatherDisplay:10.37,2013-11-19 12:51:00,
2013-11-19 07:56:00,39.4,28.3,29.98,East,79,8.1,8.1,64,0.00,CLR,,0.00,WeatherDisplay:10.37,2013-11-19 12:56:00,
2013-11-19 08:01:00,39.4,28.3,29.99,NNW,332,16.4,16.4,64,0.00,CLR,,0.00,WeatherDisplay:10.37,2013-11-19 13:01:00,
2013-11-19 08:06:00,39.6,28.5,29.99,NNW,335,9.2,9.2,64,0.00,CLR,,0.00,WeatherDisplay:10.37,2013-11-19 13:06:00,
2013-11-19 08:11:00,39.8,28.6,29.99,North,1,7.3,7.3,64,0.00,CLR,,0.00,WeatherDisplay:10.37,2013-11-19 13:11:00,
2013-11-19 08:16:00,40.1,28.9,29.99,WSW,258,9.2,9.2,64,0.00,CLR,,0.00,WeatherDisplay:10.37,2013-11-19 13:16:00,
2013-11-19 08:21:00,40.1,28.9,29.99,NW,326,10.4,10.4,64,0.00,CLR,,0.00,WeatherDisplay:10.37,2013-11-19 13:21:00,
2013-11-19 08:26:00,40.3,28.7,29.99,NW,313,15.0,15.0,63,0.00,CLR,,0.00,WeatherDisplay:10.37,2013-11-19 13:26:00,
2013-11-19 08:31:00,40.5,28.9,29.99,West,280,8.1,8.1,63,0.00,CLR,,0.00,WeatherDisplay:10.37,2013-11-19 13:31:00,
2013-11-19 08:36:00,40.8,29.2,30.00,NW,316,9.4,9.4,63,0.00,CLR,,0.00,WeatherDisplay:10.37,2013-11-19 13:36:00,
2013-11-19 08:41:00,41.3,28.9,30.00,NNW,329,12.7,12.7,61,0.00,CLR,,0.00,WeatherDisplay:10.37,2013-11-19 13:41:00,
2013-11-19 08:46:00,41.4,29.4,30.00,West,271,6.2,6.2,62,0.00,CLR,,0.00,WeatherDisplay:10.37,2013-11-19 13:46:00,
2013-11-19 08:51:00,41.6,29.2,30.00,NNW,333,15.0,15.0,61,0.00,CLR,,0.00,WeatherDisplay:10.37,2013-11-19 13:51:00,
2013-11-19 08:56:00,41.5,29.5,30.00,NW,313,5.8,5.8,62,0.00,CLR,,0.00,WeatherDisplay:10.37,2013-11-19 13:56:00,
2013-11-19 09:01:00,41.6,29.6,30.00,East,85,6.9,6.9,62,0.00,CLR,,0.00,WeatherDisplay:10.37,2013-11-19 14:01:00,
2013-11-19 09:06:00,41.2,29.6,30.00,NE,44,10.3,10.3,63,0.00,CLR,,0.00,WeatherDisplay:10.37,2013-11-19 14:06:00,
2013-11-19 09:11:00,40.9,30.1,30.00,NNW,337,12.7,12.7,65,0.00,CLR,,0.00,WeatherDisplay:10.37,2013-11-19 14:11:00,
2013-11-19 09:16:00,41.1,30.6,30.00,North,356,5.8,5.8,66,0.00,CLR,,0.00,WeatherDisplay:10.37,2013-11-19 14:16:00,
2013-11-19 09:21:00,41.2,30.4,30.00,NE,42,5.8,5.8,65,0.00,CLR,,0.00,WeatherDisplay:10.37,2013-11-19 14:21:00,
2013-11-19 09:26:00,41.3,30.1,30.00,NW,325,12.9,12.9,64,0.00,CLR,,0.00,WeatherDisplay:10.37,2013-11-19 14:26:00,
2013-11-19 09:28:00,41.4,30.6,30.00,NNW,346,5.0,13.0,65,0.00,CLR,,0.00,WeatherDisplay:10.37,2013-11-19 14:28:00,
2013-11-19 09:33:00,41.6,30.4,30.00,North,8,8.3,8.3,64,0.00,CLR,,0.00,WeatherDisplay:10.37,2013-11-19 14:33:00,
2013-11-19 09:38:00,41.3,29.7,30.00,NNW,328,22.7,22.7,63,0.00,CLR,,0.00,WeatherDisplay:10.37,2013-11-19 14:38:00,
2013-11-19 09:43:00,41.4,29.8,30.01,NE,52,10.4,10.4,63,0.00,CLR,,0.00,WeatherDisplay:10.37,2013-11-19 14:43:00,
2013-11-19 09:48:00,41.5,29.9,30.01,NE,41,8.1,8.1,63,0.00,CLR,,0.00,WeatherDisplay:10.37,2013-11-19 14:48:00,
2013-11-19 09:53:00,41.7,29.7,30.01,West,261,7.2,7.2,62,0.00,CLR,,0.00,WeatherDisplay:10.37,2013-11-19 14:53:00,
2013-11-19 09:58:00,42.0,30.0,30.01,West,270,8.1,8.1,62,0.00,CLR,,0.00,WeatherDisplay:10.37,2013-11-19 14:58:00,
2013-11-19 10:03:00,42.1,30.0,30.01,NE,34,9.2,9.2,62,0.00,CLR,,0.00,WeatherDisplay:10.37,2013-11-19 15:03:00,
2013-11-19 10:08:00,42.4,29.5,30.01,NNW,336,13.0,13.0,60,0.00,CLR,,0.00,WeatherDisplay:10.37,2013-11-19 15:08:00,
2013-11-19 10:13:00,42.5,29.6,30.01,North,360,5.8,5.8,60,0.00,CLR,,0.00,WeatherDisplay:10.37,2013-11-19 15:13:00,
2013-11-19 10:18:00,42.7,29.8,30.02,North,11,12.7,12.7,60,0.00,CLR,,0.00,WeatherDisplay:10.37,2013-11-19 15:18:00,
2013-11-19 10:23:00,42.8,29.5,30.02,North,0,12.2,12.2,59,0.00,CLR,,0.00,WeatherDisplay:10.37,2013-11-19 15:23:00,
2013-11-19 10:28:00,42.9,29.6,30.02,ENE,65,6.2,6.2,59,0.00,CLR,,0.00,WeatherDisplay:10.37,2013-11-19 15:28:00,
2013-11-19 10:33:00,43.0,29.7,30.03,NW,304,17.3,17.3,59,0.00,CLR,,0.00,WeatherDisplay:10.37,2013-11-19 15:33:00,
2013-11-19 10:38:00,43.1,29.8,30.03,WNW,292,9.5,9.5,59,0.00,CLR,,0.00,WeatherDisplay:10.37,2013-11-19 15:38:00,
2013-11-19 10:43:00,43.2,29.0,30.03,NE,35,10.8,10.8,57,0.00,CLR,,0.00,WeatherDisplay:10.37,2013-11-19 15:43:00,
2013-11-19 10:48:00,43.4,29.2,30.03,NNW,342,10.6,10.6,57,0.00,CLR,,0.00,WeatherDisplay:10.37,2013-11-19 15:48:00,
2013-11-19 10:53:00,43.4,29.2,30.03,NW,319,10.4,10.4,57,0.00,CLR,,0.00,WeatherDisplay:10.37,2013-11-19 15:53:00,
2013-11-19 10:58:00,43.3,29.1,30.03,WNW,298,16.1,16.1,57,0.00,CLR,,0.00,WeatherDisplay:10.37,2013-11-19 15:58:00,
2013-11-19 11:03:00,43.3,29.1,30.03,NNW,343,19.4,19.4,57,0.00,CLR,,0.00,WeatherDisplay:10.37,2013-11-19 16:03:00,
2013-11-19 11:08:00,43.3,29.1,30.03,WNW,294,10.7,10.7,57,0.00,CLR,,0.00,WeatherDisplay:10.37,2013-11-19 16:08:00,
2013-11-19 11:13:00,43.2,29.4,30.03,North,4,16.1,16.1,58,0.00,CLR,,0.00,WeatherDisplay:10.37,2013-11-19 16:13:00,
2013-11-19 11:18:00,43.4,29.2,30.03,NNW,337,20.8,20.8,57,0.00,CLR,,0.00,WeatherDisplay:10.37,2013-11-19 16:18:00,
2013-11-19 11:23:00,43.9,29.2,30.03,WNW,302,8.5,8.5,56,0.00,CLR,,0.00,WeatherDisplay:10.37,2013-11-19 16:23:00,
2013-11-19 11:28:00,44.1,29.4,30.03,ENE,72,1.2,1.2,56,0.00,CLR,,0.00,WeatherDisplay:10.37,2013-11-19 16:28:00,
2013-11-19 11:34:00,44.5,29.8,30.04,NW,311,8.3,8.3,56,0.00,CLR,,0.00,WeatherDisplay:10.37,2013-11-19 16:34:00,
2013-11-19 11:39:00,43.7,29.1,30.04,NW,319,12.4,12.4,56,0.00,CLR,,0.00,WeatherDisplay:10.37,2013-11-19 16:39:00,
2013-11-19 11:44:00,43.5,28.9,30.03,North,349,11.5,11.5,56,0.00,CLR,,0.00,WeatherDisplay:10.37,2013-11-19 16:44:00,
2013-11-19 11:49:00,43.5,30.1,30.04,NNW,330,8.1,8.1,59,0.00,CLR,,0.00,WeatherDisplay:10.37,2013-11-19 16:49:00,
2013-11-19 11:54:00,43.7,29.1,30.04,NNW,342,17.3,17.3,56,0.00,CLR,,0.00,WeatherDisplay:10.37,2013-11-19 16:54:00,
2013-11-19 11:59:00,43.8,29.1,30.04,NNW,335,12.6,12.6,56,0.00,CLR,,0.00,WeatherDisplay:10.37,2013-11-19 16:59:00,
2013-11-19 12:04:00,43.2,28.1,30.04,West,260,19.6,19.6,55,0.00,CLR,,0.00,WeatherDisplay:10.37,2013-11-19 17:04:00,
2013-11-19 12:09:00,43.1,28.5,30.05,NNW,328,15.0,15.0,56,0.00,CLR,,0.00,WeatherDisplay:10.37,2013-11-19 17:09:00,
2013-11-19 12:14:00,43.1,28.1,30.04,North,359,16.5,16.5,55,0.00,CLR,,0.00,WeatherDisplay:10.37,2013-11-19 17:14:00,
2013-11-19 12:19:00,43.6,28.5,30.05,NW,312,21.3,21.3,55,0.00,CLR,,0.00,WeatherDisplay:10.37,2013-11-19 17:19:00,
2013-11-19 12:24:00,43.9,28.4,30.05,WNW,299,12.7,12.7,54,0.00,CLR,,0.00,WeatherDisplay:10.37,2013-11-19 17:24:00,
2013-11-19 12:29:00,44.1,28.5,30.05,NNW,336,17.5,17.5,54,0.00,CLR,,0.00,WeatherDisplay:10.37,2013-11-19 17:29:00,
2013-11-19 12:35:00,44.4,29.3,30.05,WSW,256,13.8,13.8,55,0.00,CLR,,0.00,WeatherDisplay:10.37,2013-11-19 17:35:00,
2013-11-19 12:40:00,44.6,28.5,30.05,ENE,75,9.6,9.6,53,0.00,CLR,,0.00,WeatherDisplay:10.37,2013-11-19 17:40:00,
2013-11-19 12:42:00,44.5,28.0,30.05,ENE,61,12.7,12.7,52,0.00,CLR,,0.00,WeatherDisplay:10.37,2013-11-19 17:42:00,
2013-11-19 12:47:00,44.4,28.8,30.05,ENE,61,2.6,2.6,54,0.00,CLR,,0.00,WeatherDisplay:10.37,2013-11-19 17:47:00,
2013-11-19 12:52:00,44.4,28.4,30.06,ESE,104,3.2,3.2,53,0.00,CLR,,0.00,WeatherDisplay:10.37,2013-11-19 17:52:00,
2013-11-19 12:57:00,44.8,29.6,30.06,WNW,292,8.1,8.1,55,0.00,CLR,,0.00,WeatherDisplay:10.37,2013-11-19 17:57:00,
2013-11-19 13:02:00,44.7,28.2,30.06,NE,38,5.5,5.5,52,0.00,CLR,,0.00,WeatherDisplay:10.37,2013-11-19 18:02:00,
2013-11-19 13:07:00,43.8,28.3,30.06,East,95,9.3,9.3,54,0.00,CLR,,0.00,WeatherDisplay:10.37,2013-11-19 18:07:00,
2013-11-19 13:12:00,43.2,27.7,30.07,North,8,8.1,8.1,54,0.00,CLR,,0.00,WeatherDisplay:10.37,2013-11-19 18:12:00,
2013-11-19 13:17:00,43.0,28.0,30.07,NW,306,7.3,7.3,55,0.00,BKN,,0.00,WeatherDisplay:10.37,2013-11-19 18:17:00,
2013-11-19 13:22:00,42.7,28.1,30.07,NE,48,5.8,5.8,56,0.00,BKN,,0.00,WeatherDisplay:10.37,2013-11-19 18:22:00,
2013-11-19 13:27:00,42.7,27.7,30.07,NE,34,14.1,14.1,55,0.00,BKN,,0.00,WeatherDisplay:10.37,2013-11-19 18:27:00,
2013-11-19 13:32:00,43.2,28.1,30.08,West,261,4.9,4.9,55,0.00,BKN,,0.00,WeatherDisplay:10.37,2013-11-19 18:32:00,
2013-11-19 13:37:00,43.6,28.5,30.08,NNW,330,6.9,6.9,55,0.00,BKN,,0.00,WeatherDisplay:10.37,2013-11-19 18:37:00,
2013-11-19 13:42:00,44.0,28.0,30.08,West,261,8.5,8.5,53,0.00,BKN,,0.00,WeatherDisplay:10.37,2013-11-19 18:42:00,
2013-11-19 13:47:00,43.7,27.2,30.08,North,6,12.7,12.7,52,0.00,BKN,,0.00,WeatherDisplay:10.37,2013-11-19 18:47:00,
2013-11-19 13:52:00,43.2,27.7,30.09,West,270,12.9,12.9,54,0.00,BKN,,0.00,WeatherDisplay:10.37,2013-11-19 18:52:00,
2013-11-19 13:57:00,42.7,28.1,30.09,WNW,294,12.7,12.7,56,0.00,BKN,,0.00,WeatherDisplay:10.37,2013-11-19 18:57:00,
2013-11-19 14:02:00,43.0,28.0,30.09,West,281,15.0,15.0,55,0.00,SCT,,0.00,WeatherDisplay:10.37,2013-11-19 19:02:00,
2013-11-19 14:07:00,42.9,27.0,30.09,North,352,9.2,9.2,53,0.00,SCT,,0.00,WeatherDisplay:10.37,2013-11-19 19:07:00,
2013-11-19 14:12:00,43.0,27.5,30.09,NW,305,13.8,13.8,54,0.00,SCT,,0.00,WeatherDisplay:10.37,2013-11-19 19:12:00,
2013-11-19 14:17:00,42.9,27.4,30.09,NW,309,10.4,10.4,54,0.00,SCT,,0.00,WeatherDisplay:10.37,2013-11-19 19:17:00,
2013-11-19 14:22:00,42.7,27.2,30.09,NNW,347,10.9,10.9,54,0.00,SCT,,0.00,WeatherDisplay:10.37,2013-11-19 19:22:00,
2013-11-19 14:28:00,42.6,26.7,30.09,NW,309,10.2,10.2,53,0.00,SCT,,0.00,WeatherDisplay:10.37,2013-11-19 19:28:00,
2013-11-19 14:32:00,42.2,27.2,30.10,NW,313,10.7,10.7,55,0.00,SCT,,0.00,WeatherDisplay:10.37,2013-11-19 19:32:00,
2013-11-19 14:37:00,41.9,26.9,30.10,NW,308,15.0,15.0,55,0.00,SCT,,0.00,WeatherDisplay:10.37,2013-11-19 19:37:00,
2013-11-19 14:42:00,41.5,27.0,30.10,NNE,17,9.2,9.2,56,0.00,SCT,,0.00,WeatherDisplay:10.37,2013-11-19 19:42:00,
2013-11-19 14:47:00,41.2,27.1,30.11,North,7,6.7,6.7,57,0.00,SCT,,0.00,WeatherDisplay:10.37,2013-11-19 19:47:00,
2013-11-19 14:52:00,41.1,27.0,30.11,NNW,346,12.7,12.7,57,0.00,SCT,,0.00,WeatherDisplay:10.37,2013-11-19 19:52:00,
2013-11-19 14:57:00,40.9,26.9,30.12,NNW,344,11.5,11.5,57,0.00,SCT,,0.00,WeatherDisplay:10.37,2013-11-19 19:57:00,
2013-11-19 15:02:00,41.0,27.0,30.12,NW,319,8.3,8.3,57,0.00,FEW,,0.00,WeatherDisplay:10.37,2013-11-19 20:02:00,
2013-11-19 15:07:00,40.8,27.2,30.12,WSW,253,3.5,3.5,58,0.00,FEW,,0.00,WeatherDisplay:10.37,2013-11-19 20:07:00,
2013-11-19 15:12:00,40.9,27.3,30.13,ENE,73,4.6,4.6,58,0.00,FEW,,0.00,WeatherDisplay:10.37,2013-11-19 20:12:00,
2013-11-19 15:17:00,40.8,27.2,30.13,North,353,4.6,4.6,58,0.00,FEW,,0.00,WeatherDisplay:10.37,2013-11-19 20:17:00,
2013-11-19 15:22:00,40.8,26.8,30.13,NW,319,7.8,7.8,57,0.00,FEW,,0.00,WeatherDisplay:10.37,2013-11-19 20:22:00,
2013-11-19 15:28:00,40.8,27.2,30.14,North,0,5.7,5.7,58,0.00,FEW,,0.00,WeatherDisplay:10.37,2013-11-19 20:28:00,
2013-11-19 15:33:00,40.9,26.9,30.14,North,8,2.5,2.5,57,0.00,FEW,,0.00,WeatherDisplay:10.37,2013-11-19 20:33:00,
2013-11-19 15:38:00,40.8,27.2,30.14,NNE,28,9.2,9.2,58,0.00,FEW,,0.00,WeatherDisplay:10.37,2013-11-19 20:38:00,
2013-11-19 15:42:00,40.8,26.8,30.14,WNW,296,5.8,5.8,57,0.00,FEW,,0.00,WeatherDisplay:10.37,2013-11-19 20:42:00,
2013-11-19 15:48:00,40.5,26.5,30.14,North,3,1.2,0.0,57,0.00,FEW,,0.00,WeatherDisplay:10.37,2013-11-19 20:48:00,
2013-11-19 15:53:00,40.5,26.9,30.15,North,3,0.0,0.0,58,0.00,FEW,,0.00,WeatherDisplay:10.37,2013-11-19 20:53:00,
2013-11-19 15:58:00,40.3,26.7,30.16,NW,318,9.2,9.2,58,0.00,FEW,,0.00,WeatherDisplay:10.37,2013-11-19 20:58:00,
2013-11-19 16:03:00,40.1,26.1,30.16,WNW,287,8.1,8.1,57,0.00,CLR,,0.00,WeatherDisplay:10.37,2013-11-19 21:03:00,
2013-11-19 16:08:00,39.8,26.3,30.16,North,1,1.2,0.0,58,0.00,CLR,,0.00,WeatherDisplay:10.37,2013-11-19 21:08:00,
2013-11-19 16:13:00,39.5,26.4,30.17,NE,52,6.9,6.9,59,0.00,CLR,,0.00,WeatherDisplay:10.37,2013-11-19 21:13:00,
2013-11-19 16:18:00,39.4,26.3,30.17,NW,325,3.7,3.7,59,0.00,CLR,,0.00,WeatherDisplay:10.37,2013-11-19 21:18:00,
2013-11-19 16:23:00,39.1,26.0,30.18,NW,311,8.1,8.1,59,0.00,CLR,,0.00,WeatherDisplay:10.37,2013-11-19 21:23:00,
2013-11-19 16:28:00,38.8,25.3,30.18,NW,326,10.9,10.9,58,0.00,CLR,,0.00,WeatherDisplay:10.37,2013-11-19 21:28:00,
2013-11-19 16:33:00,38.7,25.2,30.18,ENE,62,6.9,6.9,58,0.00,FEW,,0.00,WeatherDisplay:10.37,2013-11-19 21:33:00,
2013-11-19 16:38:00,38.6,25.5,30.18,West,275,0.0,0.0,59,0.00,FEW,,0.00,WeatherDisplay:10.37,2013-11-19 21:38:00,
2013-11-19 16:43:00,38.4,25.3,30.19,NNE,23,9.6,9.6,59,0.00,FEW,,0.00,WeatherDisplay:10.37,2013-11-19 21:43:00,
2013-11-19 16:48:00,38.3,25.3,30.19,ENE,69,4.6,4.6,59,0.00,FEW,,0.00,WeatherDisplay:10.37,2013-11-19 21:48:00,
2013-11-19 16:53:00,37.9,25.3,30.20,NE,52,7.3,7.3,60,0.00,FEW,,0.00,WeatherDisplay:10.37,2013-11-19 21:53:00,
2013-11-19 16:58:00,37.8,25.2,30.20,East,95,5.8,5.8,60,0.00,FEW,,0.00,WeatherDisplay:10.37,2013-11-19 21:58:00,
2013-11-19 17:03:00,37.7,25.5,30.20,East,80,0.0,0.0,61,0.00,CLR,,0.00,WeatherDisplay:10.37,2013-11-19 22:03:00,
2013-11-19 17:08:00,37.2,25.0,30.21,ENE,64,5.0,5.0,61,0.00,CLR,,0.00,WeatherDisplay:10.37,2013-11-19 22:08:00,
2013-11-19 17:13:00,37.3,25.5,30.22,ENE,64,3.5,3.5,62,0.00,CLR,,0.00,WeatherDisplay:10.37,2013-11-19 22:13:00,
2013-11-19 17:18:00,37.2,25.4,30.22,East,86,0.0,0.0,62,0.00,CLR,,0.00,WeatherDisplay:10.37,2013-11-19 22:18:00,
2013-11-19 17:23:00,36.7,24.9,30.23,East,82,8.1,8.1,62,0.00,CLR,,0.00,WeatherDisplay:10.37,2013-11-19 22:23:00,
2013-11-19 17:28:00,36.5,24.4,30.23,NNE,30,8.1,8.1,61,0.00,CLR,,0.00,WeatherDisplay:10.37,2013-11-19 22:28:00,
2013-11-19 17:33:00,36.4,24.6,30.24,NNE,27,0.0,0.0,62,0.00,CLR,,0.00,WeatherDisplay:10.37,2013-11-19 22:33:00,
2013-11-19 17:38:00,36.3,24.6,30.24,ENE,59,3.5,0.0,62,0.00,CLR,,0.00,WeatherDisplay:10.37,2013-11-19 22:38:00,
2013-11-19 17:43:00,36.0,24.7,30.24,NE,52,4.6,4.6,63,0.00,CLR,,0.00,WeatherDisplay:10.37,2013-11-19 22:43:00,
2013-11-19 17:48:00,35.9,24.6,30.25,NE,49,6.9,6.9,63,0.00,CLR,,0.00,WeatherDisplay:10.37,2013-11-19 22:48:00,
2013-11-19 17:53:00,35.8,24.5,30.25,ENE,62,4.6,4.6,63,0.00,CLR,,0.00,WeatherDisplay:10.37,2013-11-19 22:53:00,
2013-11-19 17:58:00,35.7,24.4,30.25,NE,47,7.3,7.3,63,0.00,CLR,,0.00,WeatherDisplay:10.37,2013-11-19 22:58:00,
2013-11-19 18:03:00,35.6,24.7,30.25,North,11,5.8,5.8,64,0.00,CLR,,0.00,WeatherDisplay:10.37,2013-11-19 23:03:00,
2013-11-19 18:08:00,35.5,24.6,30.25,ENE,59,5.8,5.8,64,0.00,CLR,,0.00,WeatherDisplay:10.37,2013-11-19 23:08:00,
2013-11-19 18:13:00,35.2,24.3,30.26,North,360,7.0,7.0,64,0.00,CLR,,0.00,WeatherDisplay:10.37,2013-11-19 23:13:00,
2013-11-19 18:18:00,35.1,24.2,30.26,NE,49,5.8,5.8,64,0.00,CLR,,0.00,WeatherDisplay:10.37,2013-11-19 23:18:00,
2013-11-19 18:23:00,34.9,24.4,30.26,NE,52,3.5,3.5,65,0.00,CLR,,0.00,WeatherDisplay:10.37,2013-11-19 23:23:00,
2013-11-19 18:28:00,34.8,24.3,30.26,NNE,20,6.9,6.9,65,0.00,CLR,,0.00,WeatherDisplay:10.37,2013-11-19 23:28:00,
2013-11-19 18:33:00,34.6,24.4,30.27,ENE,61,8.8,8.8,66,0.00,CLR,,0.00,WeatherDisplay:10.37,2013-11-19 23:33:00,
2013-11-19 18:38:00,34.6,24.4,30.27,NE,51,6.9,6.9,66,0.00,CLR,,0.00,WeatherDisplay:10.37,2013-11-19 23:38:00,
2013-11-19 18:43:00,34.2,24.1,30.27,NE,41,2.3,2.3,66,0.00,CLR,,0.00,WeatherDisplay:10.37,2013-11-19 23:43:00,
2013-11-19 18:48:00,34.3,24.5,30.28,NE,52,4.5,4.5,67,0.00,CLR,,0.00,WeatherDisplay:10.37,2013-11-19 23:48:00,
2013-11-19 18:53:00,34.2,24.4,30.28,ENE,58,8.3,8.3,67,0.00,CLR,,0.00,WeatherDisplay:10.37,2013-11-19 23:53:00,
2013-11-19 18:58:00,34.2,24.4,30.28,NE,40,6.2,6.2,67,0.00,CLR,,0.00,WeatherDisplay:10.37,2013-11-19 23:58:00,
2013-11-19 19:03:00,34.0,24.2,30.28,NE,52,5.5,5.5,67,0.00,CLR,,0.00,WeatherDisplay:10.37,2013-11-20 00:03:00,
2013-11-19 19:08:00,33.7,24.3,30.28,North,1,3.5,3.5,68,0.00,CLR,,0.00,WeatherDisplay:10.37,2013-11-20 00:08:00,
2013-11-19 19:13:00,33.5,24.1,30.28,North,360,7.2,7.2,68,0.00,CLR,,0.00,WeatherDisplay:10.37,2013-11-20 00:13:00,
2013-11-19 19:18:00,33.3,24.3,30.28,NNW,346,9.0,9.0,69,0.00,CLR,,0.00,WeatherDisplay:10.37,2013-11-20 00:18:00,
2013-11-19 19:23:00,33.4,24.4,30.29,ENE,66,9.2,9.2,69,0.00,CLR,,0.00,WeatherDisplay:10.37,2013-11-20 00:23:00,
2013-11-19 19:28:00,33.1,24.4,30.29,NNW,343,6.9,6.9,70,0.00,CLR,,0.00,WeatherDisplay:10.37,2013-11-20 00:28:00,
2013-11-19 19:33:00,32.9,24.2,30.29,NE,37,10.4,10.4,70,0.00,CLR,,0.00,WeatherDisplay:10.37,2013-11-20 00:33:00,
2013-11-19 19:38:00,32.9,24.2,30.29,North,3,10.0,10.0,70,0.00,CLR,,0.00,WeatherDisplay:10.37,2013-11-20 00:38:00,
2013-11-19 19:43:00,32.7,24.4,30.30,North,6,8.1,8.1,71,0.00,CLR,,0.00,WeatherDisplay:10.37,2013-11-20 00:43:00,
2013-11-19 19:48:00,32.7,24.4,30.30,ENE,61,8.1,8.1,71,0.00,CLR,,0.00,WeatherDisplay:10.37,2013-11-20 00:48:00,
2013-11-19 19:53:00,32.6,24.6,30.30,North,10,8.2,8.2,72,0.00,CLR,,0.00,WeatherDisplay:10.37,2013-11-20 00:53:00,
2013-11-19 19:58:00,32.2,24.2,30.30,NNE,14,10.4,10.4,72,0.00,CLR,,0.00,WeatherDisplay:10.37,2013-11-20 00:58:00,
2013-11-19 20:03:00,32.5,24.5,30.30,North,360,7.0,7.0,72,0.00,CLR,,0.00,WeatherDisplay:10.37,2013-11-20 01:03:00,
2013-11-19 20:08:00,32.3,24.3,30.30,NW,318,11.3,11.3,72,0.00,CLR,,0.00,WeatherDisplay:10.37,2013-11-20 01:08:00,
2013-11-19 20:13:00,32.3,24.6,30.30,SE,144,3.5,0.0,73,0.00,CLR,,0.00,WeatherDisplay:10.37,2013-11-20 01:13:00,
2013-11-19 20:18:00,32.0,24.0,30.30,NNW,339,9.2,9.2,72,0.00,CLR,,0.00,WeatherDisplay:10.37,2013-11-20 01:18:00,
2013-11-19 20:23:00,32.0,24.0,30.30,NW,319,12.6,12.6,72,0.00,CLR,,0.00,WeatherDisplay:10.37,2013-11-20 01:23:00,
2013-11-19 20:28:00,32.1,24.1,30.30,NNE,17,12.7,12.7,72,0.00,CLR,,0.00,WeatherDisplay:10.37,2013-11-20 01:28:00,
2013-11-19 20:33:00,32.1,24.1,30.30,ENE,72,8.1,8.1,72,0.00,CLR,,0.00,WeatherDisplay:10.37,2013-11-20 01:33:00,
2013-11-19 20:38:00,32.4,24.4,30.30,WNW,289,8.1,8.1,72,0.00,CLR,,0.00,WeatherDisplay:10.37,2013-11-20 01:38:00,
2013-11-19 20:43:00,32.2,24.2,30.31,North,360,0.0,4.0,72,0.00,CLR,,0.00,WeatherDisplay:10.37,2013-11-20 01:43:00,
2013-11-19 20:49:00,31.8,23.8,30.31,NNE,21,8.1,8.1,72,0.00,CLR,,0.00,WeatherDisplay:10.37,2013-11-20 01:49:00,
2013-11-19 20:54:00,32.0,24.0,30.31,NNE,23,8.1,8.1,72,0.00,CLR,,0.00,WeatherDisplay:10.37,2013-11-20 01:54:00,
2013-11-19 20:59:00,31.7,23.7,30.31,North,4,11.6,11.6,72,0.00,CLR,,0.00,WeatherDisplay:10.37,2013-11-20 01:59:00,
2013-11-19 21:04:00,31.8,23.8,30.31,NE,49,9.8,9.8,72,0.00,CLR,,0.00,WeatherDisplay:10.37,2013-11-20 02:04:00,
2013-11-19 21:09:00,31.9,23.9,30.32,NE,54,3.6,3.6,72,0.00,CLR,,0.00,WeatherDisplay:10.37,2013-11-20 02:09:00,
2013-11-19 21:14:00,31.9,23.9,30.32,ENE,69,9.8,9.8,72,0.00,CLR,,0.00,WeatherDisplay:10.37,2013-11-20 02:14:00,
2013-11-19 21:19:00,31.7,23.7,30.32,North,0,9.2,9.2,72,0.00,CLR,,0.00,WeatherDisplay:10.37,2013-11-20 02:19:00,
2013-11-19 21:24:00,31.7,23.4,30.32,North,1,10.9,10.9,71,0.00,CLR,,0.00,WeatherDisplay:10.37,2013-11-20 02:24:00,
2013-11-19 21:29:00,31.7,23.4,30.32,North,349,16.1,16.1,71,0.00,CLR,,0.00,WeatherDisplay:10.37,2013-11-20 02:29:00,
2013-11-19 21:35:00,31.7,23.4,30.32,NNW,347,8.1,8.1,71,0.00,CLR,,0.00,WeatherDisplay:10.37,2013-11-20 02:35:00,
2013-11-19 21:40:00,31.5,23.2,30.32,North,4,13.8,13.8,71,0.00,CLR,,0.00,WeatherDisplay:10.37,2013-11-20 02:40:00,
2013-11-19 21:45:00,31.6,23.3,30.32,NNW,344,14.0,14.0,71,0.00,CLR,,0.00,WeatherDisplay:10.37,2013-11-20 02:45:00,
2013-11-19 21:50:00,31.4,23.5,30.32,NE,47,9.9,9.9,72,0.00,CLR,,0.00,WeatherDisplay:10.37,2013-11-20 02:50:00,
2013-11-19 21:55:00,31.4,23.1,30.32,NE,55,5.8,5.8,71,0.00,CLR,,0.00,WeatherDisplay:10.37,2013-11-20 02:55:00,
2013-11-19 22:00:00,31.2,23.3,30.32,North,10,4.6,4.6,72,0.00,CLR,,0.00,WeatherDisplay:10.37,2013-11-20 03:00:00,
2013-11-19 22:05:00,31.0,23.1,30.32,NE,51,8.7,8.7,72,0.00,CLR,,0.00,WeatherDisplay:10.37,2013-11-20 03:05:00,
2013-11-19 22:10:00,30.9,23.0,30.32,NNE,25,9.9,9.9,72,0.00,CLR,,0.00,WeatherDisplay:10.37,2013-11-20 03:10:00,
2013-11-19 22:15:00,30.8,22.9,30.33,NNW,347,17.0,17.0,72,0.00,CLR,,0.00,WeatherDisplay:10.37,2013-11-20 03:15:00,
2013-11-19 22:20:00,30.9,23.0,30.33,NNW,332,12.7,12.7,72,0.00,CLR,,0.00,WeatherDisplay:10.37,2013-11-20 03:20:00,
2013-11-19 22:25:00,30.7,22.8,30.33,NNE,18,12.7,12.7,72,0.00,CLR,,0.00,WeatherDisplay:10.37,2013-11-20 03:25:00,
2013-11-19 22:30:00,30.6,22.7,30.34,ENE,62,11.5,11.5,72,0.00,CLR,,0.00,WeatherDisplay:10.37,2013-11-20 03:30:00,
2013-11-19 22:36:00,30.7,22.8,30.34,WNW,296,9.2,9.2,72,0.00,CLR,,0.00,WeatherDisplay:10.37,2013-11-20 03:36:00,
2013-11-19 22:41:00,30.5,22.6,30.34,NNE,27,20.1,20.1,72,0.00,CLR,,0.00,WeatherDisplay:10.37,2013-11-20 03:41:00,
2013-11-19 22:46:00,30.7,22.8,30.34,North,4,6.0,6.0,72,0.00,CLR,,0.00,WeatherDisplay:10.37,2013-11-20 03:46:00,
2013-11-19 22:51:00,30.6,22.7,30.34,South,171,15.0,15.0,72,0.00,CLR,,0.00,WeatherDisplay:10.37,2013-11-20 03:51:00,
2013-11-19 22:56:00,30.5,22.6,30.34,North,1,15.0,15.0,72,0.00,CLR,,0.00,WeatherDisplay:10.37,2013-11-20 03:56:00,
2013-11-19 23:01:00,30.5,22.6,30.35,NNE,20,10.4,10.4,72,0.00,CLR,,0.00,WeatherDisplay:10.37,2013-11-20 04:01:00,
2013-11-19 23:06:00,30.4,22.5,30.35,NW,319,10.8,10.8,72,0.00,CLR,,0.00,WeatherDisplay:10.37,2013-11-20 04:06:00,
2013-11-19 23:11:00,30.6,22.7,30.35,NE,38,10.4,10.4,72,0.00,CLR,,0.00,WeatherDisplay:10.37,2013-11-20 04:11:00,
2013-11-19 23:16:00,30.5,22.6,30.36,NE,48,6.6,6.6,72,0.00,CLR,,0.00,WeatherDisplay:10.37,2013-11-20 04:16:00,
2013-11-19 23:21:00,30.5,22.3,30.36,NE,40,5.8,5.8,71,0.00,CLR,,0.00,WeatherDisplay:10.37,2013-11-20 04:21:00,
2013-11-19 23:26:00,30.6,22.3,30.37,SSE,154,10.4,10.4,71,0.00,CLR,,0.00,WeatherDisplay:10.37,2013-11-20 04:26:00,
2013-11-19 23:31:00,30.7,22.4,30.37,ENE,64,6.2,6.2,71,0.00,CLR,,0.00,WeatherDisplay:10.37,2013-11-20 04:31:00,
2013-11-19 23:36:00,30.5,21.9,30.37,NNE,25,19.8,19.8,70,0.00,CLR,,0.00,WeatherDisplay:10.37,2013-11-20 04:36:00,
2013-11-19 23:41:00,30.6,22.0,30.37,NNE,27,5.3,5.3,70,0.00,CLR,,0.00,WeatherDisplay:10.37,2013-11-20 04:41:00,
2013-11-19 23:46:00,30.7,22.1,30.37,ENE,64,6.9,6.9,70,0.00,CLR,,0.00,WeatherDisplay:10.37,2013-11-20 04:46:00,
2013-11-19 23:51:00,30.7,22.1,30.37,NE,35,5.8,5.8,70,0.00,CLR,,0.00,WeatherDisplay:10.37,2013-11-20 04:51:00,
2013-11-19 23:56:00,30.6,22.0,30.38,NE,48,7.1,7.1,70,0.00,CLR,,0.00,WeatherDisplay:10.37,2013-11-20 04:56:00,